Torna al catalogo

STARLINK-34992

AttivoComunicazioniVLEO
NORAD 65412·PAYLOAD·🇺🇸 United States

Lanciato Aug 31, 2025 da Cape Canaveral Space Force Station

Loading…

Prossimi Passaggi (prossime 24 ore)

TLE

AggiornatoSource: CelesTrak SupGP

Epoca: Sep 14, 2026, 22:49 UTC

1 65412C 25192J   26257.95118056  .00038545  00000+0  12398-2 0  2570
2 65412  53.1592  71.5642 0001235  85.4133 314.9381 15.31676333    13

Traccia STARLINK-34992 in tempo reale con AllMySat

Download on the App Store